• Join FlightAware (Why Join?)
  • Login
  • US Flag 
12:05AM EDT


 

Airport Tracker/Info


-or-


 

Live Flight TrackerFlight Track Log ✈ N1767P ✈ 30-Jan-2014 ✈ KDXR - 5B2

Flight Track Log - Related Links

Times and Time Zones

All times are in EST time to prevent confusion due to time zone crossing. See the N1767P flight status page for this flight to view local times or setup timezone preferences in your user account.

Time Position Orientation Groundspeed Altitude Reporting Facility
EST Latitude Longitude Course Direction KTS MPH feet Rate Location/Type
05:03PM 41.6447 -73.5744 350° North 182 209 6,500  Level Boston Center
05:04PM 41.6956 -73.5850 351° North 183 211 6,500  Level Boston Center
05:05PM 41.7461 -73.5944 352° North 183 211 6,500  Level Boston Center
05:06PM 41.8008 -73.6064 351° North 184 212 6,500  Level Boston Center
05:07PM 41.8508 -73.6167 351° North 184 212 6,500  Level Boston Center
05:08PM 41.9019 -73.6258 352° North 184 212 6,500  Level Boston Center
05:09PM 41.7551 -73.5540 350° North  Level FlightAware Approximate
05:09PM 41.9564 -73.6369 351° North 184 212 6,500  Level Boston Center
05:10PM 42.0064 -73.6494 349° North 186 214 6,500  Level Boston Center
05:11PM 42.0481 -73.6575 352° North 186 214 6,500  Level Boston Center
05:11PM 42.0594 -73.6586 356° North 185 213 6,500  Level Boston Center
05:12PM 42.0975 -73.6681 350° North 183 211 6,500  Level Boston Center
05:12PM 42.1014 -73.6664 18° North 184 212 6,500  Level Boston Center
05:13PM 42.1475 -73.6761 351° North 180 207 6,500  Level Boston Center
05:14PM 42.1972 -73.6869 351° North 182 209 6,500  Level Boston Center
05:15PM 42.2486 -73.6983 351° North 183 211 6,500  Level Boston Center
05:16PM 42.3028 -73.7075 353° North 184 212 6,500  Level Boston Center
05:17PM 42.3525 -73.7183 351° North 181 208 6,500  Level Boston Center
05:18PM 42.4019 -73.7292 351° North 182 209 6,500  Level Boston Center
05:19PM 42.4536 -73.7406 351° North 182 209 6,500  Level Boston Center
05:20PM 42.5036 -73.7489 353° North 183 211 6,500  Level Boston Center
05:21PM 42.5531 -73.7597 351° North 183 211 6,500  Level Boston Center
05:22PM 42.6047 -73.7711 351° North 183 211 6,500  Level Boston Center
05:23PM 42.6547 -73.7792 353° North 181 208 6,500  Level Boston Center
05:24PM 42.7122 -73.7928 350° North 183 211 6,500 -180 Level Boston Center
05:25PM 42.7644 -73.8017 353° North 195 224 6,200 -600 Descending Boston Center
05:26PM 42.8181 -73.8142 350° North 203 234 5,400 -840 Descending Boston Center
05:27PM 42.8742 -73.8242 353° North 200 230 4,600 -840 Descending Boston Center
05:28PM 42.9278 -73.8367 350° North 191 220 3,800 -840 Descending Boston Center